This is the latest recevied weather packets stored in our database for station/object W0SS-13. If no packets are shown the sender has not sent any weather packets the latest 10 day(s).
| Time | Temp. | Humidity | Pressure | Rain* | Wind** | Luminosity | Snow |
|---|---|---|---|---|---|---|---|
| 1788139854 | 90° F | 45% | 759.1 mmHg | 0 in | - | 0 W/m² | - |
| 1788139554 | 90° F | 45% | 759.1 mmHg | 0 in | - | 0 W/m² | - |
| 1788139250 | 90° F | 45% | 759 mmHg | 0 in | - | 0 W/m² | - |
| 1788138949 | 90° F | 45% | 759.1 mmHg | 0 in | - | 0 W/m² | - |
| 1788138644 | 90° F | 45% | 759.2 mmHg | 0 in | - | 0 W/m² | - |
| 1788138340 | 90° F | 45% | 759 mmHg | 0 in | - | 1 W/m² | - |
| 1788138036 | 91° F | 45% | 758.8 mmHg | 0 in | - | 1 W/m² | - |
| 1788137731 | 91° F | 45% | 759 mmHg | 0 in | - | 3 W/m² | - |
| 1788137430 | 91° F | 45% | 759.1 mmHg | 0 in | - | 5 W/m² | - |
| 1788137127 | 92° F | 44% | 759.1 mmHg | 0 in | - | 8 W/m² | - |
| 1788136822 | 92° F | 43% | 759 mmHg | 0 in | - | 11 W/m² | - |
| 1788136518 | 93° F | 43% | 758.9 mmHg | 0 in | - | 15 W/m² | - |
| 1788136213 | 93° F | 43% | 759 mmHg | 0 in | - | 19 W/m² | - |
| 1788135912 | 93° F | 42% | 758.9 mmHg | 0 in | - | 24 W/m² | - |
| 1788135602 | 94° F | 42% | 758.9 mmHg | 0 in | - | 28 W/m² | - |
| 1788135296 | 95° F | 42% | 759 mmHg | 0 in | - | 31 W/m² | - |
| 1788134994 | 95° F | 41% | 758.9 mmHg | 0 in | - | 35 W/m² | - |
| 1788134689 | 95° F | 41% | 758.9 mmHg | 0 in | - | 38 W/m² | - |
| 1788134387 | 96° F | 41% | 758.6 mmHg | 0 in | - | 41 W/m² | - |
| 1788134083 | 96° F | 40% | 758.6 mmHg | 0 in | - | 45 W/m² | - |
| 1788133778 | 96° F | 39% | 758.8 mmHg | 0 in | - | 52 W/m² | - |
| 1788133473 | 97° F | 39% | 758.5 mmHg | 0 in | - | 67 W/m² | - |
| 1788133169 | 97° F | 38% | 758.6 mmHg | 0 in | - | 79 W/m² | - |
| 1788132864 | 97° F | 39% | 758.8 mmHg | 0 in | - | 89 W/m² | - |
| 1788132560 | 97° F | 38% | 758.6 mmHg | 0 in | - | 98 W/m² | - |
* Rain latest hour (hover to see other rain measurements)
** Current wind speed in m/s (hover to see current wind gust speed)